This demonstration page uses our WeatherBlox Daily Observations layout. Learn more.

Left ArrowRight Arrow

34.74481, -87.66753

Hourly Observations for February 19, 2018

Temp ( °F °C ) Dew Point ( °F °C ) Humidity (%) Winds ( mph kmh ) Pressure ( in mb ) Visibility ( mi km ) Precip ( " mm )
12:44 am 00:44 Partly Cloudy 55 12.8 52 11.1 90 90 ESE 3 6 30.15 1021 7 11 0.00 0.00
12:53 am 00:53 Mostly Clear 55 12.8 52 11.1 90 90 ESE 5 7 30.16 1021 7 11 0.00 0.00
1:53 am 01:53 Clear 56 13.3 53 11.7 90 90 ESE 6 9 30.16 1021 8 13 0.00 0.00
2:53 am 02:53 Clear 56 13.3 53 11.7 90 90 SE 5 7 30.16 1021 9 14 0.00 0.00
3:53 am 03:53 Clear 57 13.9 54 12.2 90 90 SE 6 9 30.17 1022 10 16 0.00 0.00
4:53 am 04:53 Clear 57 13.9 54 12.2 90 90 ESE 5 7 30.18 1022 10 16 0.00 0.00
5:53 am 05:53 Clear 57 13.9 54 12.2 90 90 SSE 7 11 30.19 1022 10 16 0.00 0.00
6:53 am 06:53 Cloudy 59 15 56 13.3 90 90 SSE 7 11 30.20 1023 10 16 0.00 0.00
7:08 am 07:08 Cloudy 59 15 56 13.3 90 90 SSE 8 13 30.21 1023 10 16 0.00 0.00
7:25 am 07:25 Cloudy 60 15.6 56 13.3 86 86 SSE 8 13 30.21 1023 10 16 0.00 0.00
7:53 am 07:53 Cloudy 61 16.1 57 13.9 87 87 S 7 11 30.21 1023 8 13 0.00 0.00
8:53 am 08:53 Cloudy 64 17.8 59 15 84 84 S 9 15 30.22 1023 10 16 0.00 0.00
8:57 am 08:57 Mostly Cloudy 64 17.8 59 15 84 84 S 12 19 30.18 1022 10 16 0.00 0.00
9:07 am 09:07 Mostly Cloudy 64 17.8 59 15 84 84 S 13 20 30.21 1023 10 16 0.00 0.00
9:18 am 09:18 Cloudy 64 17.8 58 14.4 81 81 SSW 15 24 30.21 1023 10 16 0.00 0.00
9:53 am 09:53 Cloudy 66 18.9 59 15 78 78 S 10 17 30.22 1023 10 16 0.00 0.00
10:22 am 10:22 Partly Cloudy 68 20 59 15 73 73 S 12 19 30.21 1023 10 16 0.00 0.00
10:53 am 10:53 Mostly Cloudy 68 20 58 14.4 70 70 SSW 18 30 30.22 1023 10 16 0.00 0.00
11:53 am 11:53 Mostly Cloudy 71 21.7 58 14.4 63 63 SSW 16 26 30.19 1023 10 16 0.00 0.00
12:04 pm 12:04 Mostly Cloudy 72 22.2 58 14.4 61 61 S 12 19 30.18 1022 10 16 0.00 0.00
12:53 pm 12:53 Mostly Sunny 73 22.8 58 14.4 59 59 SSE 16 26 30.14 1021 10 16 0.00 0.00
1:53 pm 13:53 Mostly Cloudy 74 23.3 58 14.4 57 57 S 18 30 30.13 1020 10 16 0.00 0.00
2:53 pm 14:53 Cloudy 74 23.3 57 13.9 56 56 S 15 24 30.12 1020 10 16 0.00 0.00
3:53 pm 15:53 Partly Cloudy 75 23.9 57 13.9 54 54 S 17 28 30.11 1020 10 16 0.00 0.00
4:53 pm 16:53 Sunny 73 22.8 58 14.4 59 59 S 10 17 30.12 1020 10 16 0.00 0.00
5:53 pm 17:53 Clear 71 21.7 57 13.9 61 61 S 6 9 30.13 1020 10 16 0.00 0.00
6:53 pm 18:53 Clear 68 20 58 14.4 70 70 SSE 9 15 30.14 1021 10 16 0.00 0.00
7:53 pm 19:53 Clear 65 18.3 57 13.9 76 76 SE 5 7 30.15 1021 10 16 0.00 0.00
8:53 pm 20:53 Clear 65 18.3 57 13.9 76 76 SE 8 13 30.16 1021 10 16 0.00 0.00
9:53 pm 21:53 Mostly Clear 65 18.3 57 13.9 76 76 SE 8 13 30.16 1021 10 16 0.00 0.00
10:53 pm 22:53 Clear 66 18.9 57 13.9 73 73 SSE 9 15 30.17 1022 10 16 0.00 0.00
11:53 pm 23:53 Clear 68 20 57 13.9 68 68 S 10 17 30.19 1022 10 16 0.00 0.00

Powered by AerisWeather